Flag Weather past 2 weeks in Santa Barbara, California, U.S.A.

Now
60 °F

Clear.


Feels Like: 60 °F
Forecast: 49 / 69 °F
Wind: 3 mph from North

Location: Santa Barbara Municipal Airport

Current Time: Nov 23, 2014 at 8:23:14 PM

Latest Report: Nov 23, 2014 at 6:53 PM


Visibility: 10 mi

Pressure: 30.12 "Hg

Humidity: 44%

Dew point: 38 °F

Location of Santa BarbaraLocation

Historic Weather in Santa Barbara — Graph

°F

Santa Barbara temperature yesterday

Maximum temperature yesterday: 78 °F (at 2:53 PM)
Minimum temperature yesterday: 50 °F (at 2:53 AM)
Average temperature yesterday: 64 °F

Past Weeks' High & Low Weather Summary

 TemperatureHumidityPressure
High78 °F (Nov 22, 2:53 PM)97% (Nov 9, 2:53 AM)30.19 "Hg (Nov 9, 2:53 AM)
Low46 °F (Nov 16, 6:53 AM)17% (Nov 17, 2:53 PM)29.82 "Hg (Nov 9, 3:53 PM)
Average61 °F66%30.01 "Hg
* Reported Nov 8 6:53 PM — Nov 23 6:53 PM, Santa Barbara, Weather by CustomWeather, © 2014

Note: Actual official high and low records may vary slightly from our data, if they occured in-between our weather recording intervals... More about our weather records

Advertising

Santa Barbara weather history for previous 24 hours

 ConditionsComfort  
Time TempWeatherWind HumidityBarometerVisibility
6:53 PM
Nov 23
60 °FClear.3 mph44%30.12 "Hg10 mi
5:53 PM61 °FClear.No wind65%30.11 "Hg10 mi
4:53 PM65 °FClear.3 mph63%30.11 "Hg10 mi
3:53 PM70 °FSunny.3 mph55%30.11 "Hg10 mi
2:53 PM72 °FSunny.7 mph41%30.11 "Hg10 mi
1:53 PM75 °FSunny.8 mph19%30.12 "Hg10 mi
12:53 PM74 °FSunny.8 mph26%30.14 "Hg10 mi
11:53 AM73 °FScattered clouds.10 mph32%30.15 "Hg10 mi
10:53 AM70 °FSunny.7 mph42%30.18 "Hg10 mi
9:53 AM72 °FSunny.7 mph23%30.17 "Hg10 mi
8:53 AM71 °FSunny.6 mph21%30.15 "Hg10 mi
7:53 AM68 °FSunny.8 mph32%30.15 "Hg10 mi
6:53 AM55 °FSunny.9 mph62%30.12 "Hg10 mi
5:53 AM57 °FClear.3 mph62%30.10 "Hg10 mi
4:53 AM51 °FClear.7 mph83%30.06 "Hg10 mi
3:53 AM51 °FClear.No wind86%30.05 "Hg10 mi
2:53 AM53 °FClear.5 mph86%30.05 "Hg10 mi
1:53 AM56 °FClear.3 mph84%30.04 "Hg10 mi
12:53 AM57 °FClear.No wind81%30.04 "Hg10 mi
11:53 PM
Nov 22
62 °FClear.No wind75%30.03 "Hg10 mi
10:53 PM64 °FClear.6 mph70%30.02 "Hg10 mi
9:53 PM65 °FClear.13 mph66%30.01 "Hg10 mi
8:53 PM62 °FClear.3 mph75%30.01 "Hg10 mi
Weather by CustomWeather, © 2014

See weather overviewHow to use our weather pages